Hanimaadhoo Airport


Codes: VRMH/HAQ
Name: Hanimaadhoo Airport
City: Haa Dhaalu Atoll
Country: Maldives
Elevation: 4 ft.
Wikipedia:

Photos at Hanimaadhoo Airport


   Photos courtesy of SpottingLog. You can add your own sightings and photos by signing up for a free trial today.



No photos found.

Weather at Hanimaadhoo Airport


Time (UTC)DescriptionTempratureWindCloud coverageVisibilityPressureHumidity
23-May-2024 21:00Light Rain29°C22 mph, W100%10000m1006hPa74%
24-May-2024 00:00Light Rain29°C22 mph, W100%10000m1006hPa73%
24-May-2024 03:00Light Rain29°C25 mph, W100%10000m1008hPa76%
24-May-2024 06:00Light Rain30°C20 mph, W92%10000m1008hPa76%
24-May-2024 09:00Light Rain28°C20 mph, W99%10000m1006hPa80%
24-May-2024 12:00Light Rain29°C20 mph, W99%10000m1006hPa78%
24-May-2024 15:00Light Rain29°C22 mph, W100%10000m1008hPa71%
24-May-2024 18:00Overcast Clouds30°C18 mph, W100%10000m1008hPa72%
24-May-2024 21:00Light Rain29°C18 mph, W100%9869m1006hPa75%
25-May-2024 00:00Light Rain29°C18 mph, W100%6931m1006hPa76%
25-May-2024 03:00Light Rain30°C16 mph, W100%10000m1008hPa71%
25-May-2024 06:00Light Rain30°C18 mph, W88%10000m1008hPa72%
25-May-2024 09:00Light Rain30°C18 mph, W100%10000m1006hPa76%
25-May-2024 12:00Light Rain30°C16 mph, W97%10000m1007hPa76%
25-May-2024 15:00Light Rain29°C16 mph, W81%5656m1009hPa79%
25-May-2024 18:00Moderate Rain29°C16 mph, NW91%10000m1010hPa77%
25-May-2024 21:00Light Rain29°C18 mph, W89%10000m1007hPa75%
26-May-2024 00:00Light Rain29°C18 mph, W82%10000m1007hPa77%
26-May-2024 03:00Light Rain30°C18 mph, W99%10000m1009hPa75%
26-May-2024 06:00Light Rain29°C20 mph, W95%10000m1009hPa79%
26-May-2024 09:00Light Rain29°C20 mph, W97%10000m1007hPa76%
26-May-2024 12:00Light Rain30°C18 mph, W99%10000m1007hPa78%
26-May-2024 15:00Light Rain29°C20 mph, W97%10000m1009hPa81%
26-May-2024 18:00Light Rain29°C20 mph, W98%10000m1010hPa78%
26-May-2024 21:00Light Rain29°C20 mph, W100%10000m1008hPa79%
27-May-2024 00:00Light Rain29°C20 mph, W100%10000m1008hPa80%
27-May-2024 03:00Light Rain29°C20 mph, W100%10000m1010hPa79%
27-May-2024 06:00Light Rain29°C20 mph, W100%10000m1010hPa79%
27-May-2024 09:00Light Rain29°C22 mph, W100%10000m1007hPa80%
27-May-2024 12:00Light Rain29°C20 mph, W75%10000m1008hPa79%
27-May-2024 15:00Light Rain29°C20 mph, W100%10000m1010hPa79%
27-May-2024 18:00Light Rain29°C22 mph, W100%10000m1010hPa80%
27-May-2024 21:00Light Rain29°C25 mph, W54%10000m1008hPa81%
28-May-2024 00:00Light Rain29°C25 mph, W78%10000m1009hPa79%
28-May-2024 03:00Light Rain29°C22 mph, W100%10000m1010hPa80%
28-May-2024 06:00Light Rain29°C25 mph, W100%10000m1010hPa79%
28-May-2024 09:00Light Rain29°C25 mph, W100%10000m1007hPa81%
28-May-2024 12:00Light Rain29°C22 mph, W100%10000m1007hPa81%
28-May-2024 15:00Light Rain29°C22 mph, W99%10000m1009hPa78%
28-May-2024 18:00Light Rain29°C22 mph, W100%10000m1009hPa78%